Date String (YYYY-MM-DD hh:mm:ss) UTC,Instrument flags,Ambient pressure (hPa),Sample flow (lpm),Bypass flow (lpm),Sample temperature (°C),Ambient temperature (°C),ASC tube jacket temperature (°C),LED temperature (°C),Box temperature (°C),Sample RH (%),Span deviation,Mass concentration (μg/m³),Mass concentration (μg/m³),Mass concentration (μg/m³)
DateTimeUTC,F1_M11,P_M11,Q1_M11,Q2_M11,T1_M11,T2_M11,T3_M11,T4_M11,T5_M11,U1_M11,ZSPAN_M11,X0_M11,X2_M11,X1_M11
2022-02-07 10:00:00,,0833.1,4.98,0.00,22.5,22.9,00.0,31.4,24.4,06.5,0000.0,0001.67,0000.61,0000.47
2022-02-07 10:01:00,,0833.0,5.01,0.00,22.6,23.1,00.0,31.5,24.5,06.5,0000.0,0001.69,0000.62,0000.47
2022-02-07 10:02:00,,0833.0,4.99,0.00,22.6,22.9,00.0,31.5,24.5,06.4,0000.0,0001.67,0000.61,0000.46
2022-02-07 10:03:00,,0833.1,5.01,0.00,22.6,22.6,00.0,31.5,24.4,06.4,0000.0,0001.54,0000.56,0000.46
2022-02-07 10:04:00,,0833.0,5.01,0.00,22.6,22.4,00.0,31.5,24.3,06.5,0000.0,0001.43,0000.51,0000.45
2022-02-07 10:05:00,,0832.9,4.99,0.00,22.5,22.2,00.0,31.5,24.2,06.5,0000.0,0001.43,0000.51,0000.45
2022-02-07 10:06:00,,0833.0,5.00,0.00,22.5,22.0,00.0,31.5,24.2,06.4,0000.0,0001.47,0000.52,0000.45
2022-02-07 10:07:00,,0833.0,5.01,0.00,22.4,21.9,00.0,31.5,24.1,06.5,0000.0,0001.50,0000.53,0000.45
2022-02-07 10:08:00,,0833.1,5.00,0.00,22.4,21.8,00.0,31.4,24.0,06.5,0000.0,0001.46,0000.52,0000.46
2022-02-07 10:09:00,,0833.0,4.98,0.00,22.4,21.7,00.0,31.4,24.0,06.6,0000.0,0001.48,0000.54,0000.45
2022-02-07 10:10:00,,0833.0,5.01,0.00,22.3,21.6,00.0,31.4,23.9,06.7,0000.0,0001.05,0000.55,0000.46
2022-02-07 10:11:00,,0833.0,4.98,0.00,22.3,21.5,00.0,31.4,23.9,06.7,0000.0,0000.78,0000.55,0000.46
2022-02-07 10:12:00,,0833.0,5.02,0.00,22.3,21.5,00.0,31.4,23.9,06.7,0000.0,0000.79,0000.56,0000.46
2022-02-07 10:13:00,,0833.1,4.99,0.00,22.2,21.4,00.0,31.4,23.9,06.7,0000.0,0000.76,0000.56,0000.46
2022-02-07 10:14:00,,0833.0,5.01,0.00,22.2,21.4,00.0,31.3,23.8,06.7,0000.0,0000.83,0000.59,0000.46
2022-02-07 10:15:00,,0833.1,4.99,0.00,22.2,21.4,00.0,31.3,23.8,06.7,0000.0,0000.87,0000.61,0000.46
2022-02-07 10:16:00,,0833.1,5.00,0.00,22.3,22.0,00.0,31.4,24.0,06.7,0000.0,0000.92,0000.63,0000.47
2022-02-07 10:17:00,,0833.0,5.00,0.00,22.4,22.9,00.0,31.4,24.3,06.6,0000.0,0000.94,0000.64,0000.47
2022-02-07 10:18:00,,0833.0,5.00,0.00,22.5,23.1,00.0,31.4,24.5,06.6,0000.0,0000.87,0000.61,0000.46
2022-02-07 10:19:00,,0833.0,5.00,0.00,22.6,22.9,00.0,31.4,24.5,06.6,0000.0,0000.87,0000.61,0000.46
2022-02-07 10:20:00,,0833.0,5.00,0.00,22.6,22.6,00.0,31.4,24.4,06.6,0000.0,0000.83,0000.58,0000.46
2022-02-07 10:21:00,,0832.9,5.00,0.00,22.5,22.4,00.0,31.4,24.3,06.6,0000.0,0000.79,0000.56,0000.45
2022-02-07 10:22:00,,0832.9,5.00,0.00,22.5,22.2,00.0,31.4,24.2,06.6,0000.0,0000.79,0000.56,0000.45
2022-02-07 10:23:00,,0832.8,5.00,0.00,22.4,22.0,00.0,31.4,24.1,06.7,0000.0,0000.78,0000.56,0000.46
2022-02-07 10:24:00,,0832.9,5.01,0.00,22.4,21.9,00.0,31.4,24.0,06.7,0000.0,0000.82,0000.57,0000.46
2022-02-07 10:25:00,,0832.8,4.99,0.00,22.4,21.7,00.0,31.4,24.0,06.7,0000.0,0000.86,0000.55,0000.46
2022-02-07 10:26:00,,0832.9,5.02,0.00,22.3,21.6,00.0,31.4,24.0,06.8,0000.0,0000.89,0000.55,0000.45
2022-02-07 10:27:00,,0832.9,4.99,0.00,22.3,21.5,00.0,31.4,23.9,06.8,0000.0,0000.85,0000.54,0000.45
2022-02-07 10:28:00,,0832.9,5.01,0.00,22.2,21.5,00.0,31.4,23.9,06.8,0000.0,0000.96,0000.55,0000.44
2022-02-07 10:29:00,,0832.9,5.00,0.00,22.2,21.4,00.0,31.4,23.8,06.8,0000.0,0001.05,0000.58,0000.45
2022-02-07 10:30:00,,0832.8,5.00,0.00,22.2,21.4,00.0,31.3,23.8,06.8,0000.0,0001.09,0000.59,0000.45
2022-02-07 10:31:00,,0832.8,4.99,0.00,22.2,21.3,00.0,31.3,23.8,06.8,0000.0,0001.16,0000.62,0000.46
2022-02-07 10:32:00,,0832.8,5.01,0.00,22.1,21.3,00.0,31.3,23.7,06.8,0000.0,0001.15,0000.61,0000.45
2022-02-07 10:33:00,,0832.8,5.00,0.00,22.1,21.6,00.0,31.3,23.8,06.8,0000.0,0001.75,0000.62,0000.46
2022-02-07 10:34:00,,0832.8,5.00,0.00,22.3,22.3,00.0,31.3,24.1,06.7,0000.0,0002.09,0000.63,0000.45
2022-02-07 10:35:00,,0832.8,4.99,0.00,22.4,23.1,00.0,31.4,24.3,06.7,0000.0,0002.08,0000.62,0000.45
2022-02-07 10:36:00,,0832.8,5.00,0.00,22.5,23.1,00.0,31.4,24.4,06.6,0000.0,0001.97,0000.61,0000.45
2022-02-07 10:37:00,,0832.7,4.99,0.00,22.5,22.8,00.0,31.4,24.4,06.6,0000.0,0001.92,0000.60,0000.45
2022-02-07 10:38:00,,0832.7,5.00,0.00,22.5,22.5,00.0,31.4,24.3,06.6,0000.0,0001.92,0000.60,0000.45
2022-02-07 10:39:00,,0832.8,5.02,0.00,22.5,22.3,00.0,31.4,24.2,06.6,0000.0,0001.77,0000.57,0000.45
2022-02-07 10:40:00,,0832.8,5.00,0.00,22.4,22.2,00.0,31.4,24.2,06.7,0000.0,0001.65,0000.53,0000.43
2022-02-07 10:41:00,,0832.8,5.00,0.00,22.4,22.0,00.0,31.4,24.1,06.7,0000.0,0001.62,0000.52,0000.43
2022-02-07 10:42:00,,0832.8,5.01,0.00,22.4,21.9,00.0,31.4,24.0,06.7,0000.0,0001.58,0000.50,0000.42
2022-02-07 10:43:00,,0832.8,5.00,0.00,22.3,21.8,00.0,31.4,24.0,06.7,0000.0,0001.62,0000.52,0000.43
2022-02-07 10:44:00,,0832.8,4.99,0.00,22.3,21.7,00.0,31.4,24.0,06.8,0000.0,0001.21,0000.52,0000.42
2022-02-07 10:45:00,,0832.8,5.01,0.00,22.3,21.7,00.0,31.4,24.0,06.8,0000.0,0000.82,0000.52,0000.42
2022-02-07 10:46:00,,0832.9,4.99,0.00,22.3,21.6,00.0,31.4,23.9,06.9,0000.0,0000.85,0000.53,0000.41
2022-02-07 10:47:00,,0832.8,5.00,0.00,22.2,21.5,00.0,31.3,23.9,06.9,0000.0,0000.86,0000.54,0000.41
2022-02-07 10:48:00,,0832.9,5.00,0.00,22.2,21.5,00.0,31.3,23.9,06.9,0000.0,0000.91,0000.55,0000.42
2022-02-07 10:49:00,,0833.0,5.01,0.00,22.2,21.5,00.0,31.3,23.9,06.9,0000.0,0001.10,0000.57,0000.43
2022-02-07 10:50:00,,0833.0,5.00,0.00,22.2,21.4,00.0,31.3,23.9,07.0,0000.0,0001.24,0000.59,0000.43
2022-02-07 10:51:00,,0833.0,5.01,0.00,22.2,21.4,00.0,31.3,23.9,07.0,0000.0,0001.27,0000.60,0000.43
2022-02-07 10:52:00,,0833.0,5.00,0.00,22.2,21.6,00.0,31.3,23.9,07.0,0000.0,0001.26,0000.60,0000.44
2022-02-07 10:53:00,,0833.1,4.99,0.00,22.3,22.3,00.0,31.3,24.1,07.2,0000.0,0001.26,0000.61,0000.45
2022-02-07 10:54:00,,0833.0,4.99,0.00,22.4,23.1,00.0,31.4,24.4,07.4,0000.0,0001.23,0000.60,0000.44
2022-02-07 10:55:00,,0833.1,5.00,0.00,22.6,23.2,00.0,31.4,24.5,07.3,0000.0,0001.16,0000.59,0000.45
2022-02-07 10:56:00,,0833.1,5.01,0.00,22.6,23.0,00.0,31.4,24.5,07.3,0000.0,0001.08,0000.57,0000.45
2022-02-07 10:57:00,,0833.1,5.00,0.00,22.6,22.8,00.0,31.4,24.4,07.2,0000.0,0001.03,0000.55,0000.45
2022-02-07 10:58:00,,0833.0,5.00,0.00,22.6,22.6,00.0,31.4,24.4,07.2,0000.0,0001.04,0000.55,0000.44
2022-02-07 10:59:00,,0833.1,5.00,0.00,22.6,22.4,00.0,31.4,24.3,07.1,0000.0,0000.99,0000.53,0000.44
